Voltar ao catálogo

ATLAS 5 CENTAUR DEB

AtivoHEO
NORAD 46668·DEBRIS·🇺🇸 United States

Lançado Oct 17, 2018 de Cape Canaveral Space Force Station

Loading…

Próximas Passagens (próximas 24 horas)

TLE

AtualizadoSource: Space-Track

Época: Sep 14, 2026, 10:41 UTC

1 46668U 18079CW  26257.44568377 -.00000175  00000-0  00000-0 0  9995
2 46668  13.3655  25.6104 4657913 336.8796   7.5428  1.83703400 39813

Acompanhe ATLAS 5 CENTAUR DEB em tempo real com AllMySat

Download on the App Store